Preview of NWS' New Version of Forecast
This preview is not operational and should not be used for support decisions.

Regional Weather Roundup (RWR)

Issued by National Weather Service (NWS)

                            
000
ASUS45 KCYS 220710
RWRWY 

WYOMING REGIONAL WEATHER ROUNDUP
NATIONAL WEATHER SERVICE CHEYENNE WY
100 AM MDT MON APR 22 2019

NOTE:  "FAIR" INDICATES FEW OR NO CLOUDS BELOW 12,000 FEET
WITH NO SIGNIFICANT WEATHER AND/OR OBSTRUCTIONS TO VISIBILITY.

WYZ001-220800-
...YELLOWSTONE NATIONAL PARK...
  
CITY           SKY/WX    TMP DP  RH WIND       PRES   REMARKS
LK YELLOWSTONE   N/A     33  24  69 CALM      30.20R                  
W YELLOWSTONE  NOT AVBL                                               

$$
WYZ002>013-054>058-071-098>099-220800-
...NORTHERN WYOMING...
  
CITY           SKY/WX    TMP DP  RH WIND       PRES   REMARKS
JACKSON        LGT RAIN  38  35  89 N9        30.13R WCI  31          
CODY           LGT RAIN  37  31  78 NW7       30.24R WCI  32          
GREYBULL       LGT RAIN  42  40  92 W7        30.20R                  
WORLAND        CLOUDY    41  39  93 W7        30.22R                  
SHERIDAN       LGT RAIN  43  41  93 CALM      30.24S FOG              
BUFFALO        LGT RAIN  40  39  97 N5        30.23S FOG              
GILLETTE       CLOUDY    40  40 100 N7        30.22S                  
HULETT         FAIR      41  39  93 CALM      30.22S                  
NEWCASTLE      DRIZZLE   37  36  93 N6        30.21R WCI  33          

$$
WYZ014>020-022>026-101>103-220800-
...CENTRAL WYOMING...
  
CITY           SKY/WX    TMP DP  RH WIND       PRES   REMARKS
BIG PINEY      LGT SNOW  34  32  92 N5        30.16R FOG     WCI  30  
PINEDALE       CLOUDY    36  36 100 CALM      30.15R                  
DUBOIS         CLOUDY    32  32 100 E9        30.18R WCI  24          
LANDER         LGT RAIN  37  34  89 W7        30.20S WCI  32          
RIVERTON       LGT RAIN  37  35  92 NW3       30.22R                  
CASPER         LGT RAIN  39  38  96 NE14      30.19S WCI  31          
DOUGLAS        CLOUDY    40  39  97 NE5       30.20R                  

$$
WYZ021-027>030-104>119-220800-
...SOUTHERN WYOMING...
  
CITY           SKY/WX    TMP DP  RH WIND       PRES   REMARKS
EVANSTON       CLOUDY    36  34  92 E8        30.11S WCI  30          
KEMMERER       FLURRIES  32  32 100 CALM      30.15R                  
FORT BRIDGER   LGT SNOW  34  34 100 CALM      30.16R VSB 1            
ROCK SPRINGS   CLOUDY    35  34  96 NE20      30.13R WCI  24          
DIXON          FAIR      42  35  76 NE17      30.10S                  
RAWLINS        CLOUDY    37  35  92 NE9       30.15S WCI  30          
SARATOGA       CLOUDY    37  37 100 NW6       30.13R WCI  33          
LARAMIE        LGT RAIN  34  34 100 W12       30.16R WCI  25          
CHEYENNE       CLOUDY    38  38 100 N14       30.15R FOG     WCI  30  
TORRINGTON     LGT RAIN  41  39  93 N15       30.15R                  
PINE BLUFFS    CLOUDY    39  37  93 N16       30.15R WCI  30          

$$